Hourly Weather Chandausi

Today, 15 June, Tuesday

Time Temperature Precipitation Wind Pressure Humidity
00:00 +33°C° 0 mm 3 mps 731 mmHg 58%
01:00 +31°C° 0 mm 2 mps 730 mmHg 63%
02:00 +30°C° 0 mm 2 mps 730 mmHg 68%
03:00 +30°C° 0 mm 2 mps 730 mmHg 69%
04:00 +30°C° 0 mm 1 mps 730 mmHg 69%
05:00 +30°C° 0 mm 1 mps 730 mmHg 70%
06:00 +31°C° 0 mm 1 mps 730 mmHg 66%
07:00 +32°C° 0 mm 1 mps 730 mmHg 61%
08:00 +34°C° 0 mm 2 mps 731 mmHg 57%
09:00 +35°C° 0 mm 1 mps 730 mmHg 51%
10:00 +36°C° 0 mm 1 mps 730 mmHg 44%
11:00 +36°C° 0 mm 0 mps 730 mmHg 38%
12:00 +40°C° 0 mm 1 mps 730 mmHg 35%
13:00 +41°C° 0 mm 2 mps 729 mmHg 31%
14:00 +42°C° 0 mm 2 mps 728 mmHg 28%
15:00 +42°C° 0 mm 4 mps 728 mmHg 30%
16:00 +42°C° 0 mm 5 mps 728 mmHg 33%
17:00 +41°C° 0 mm 7 mps 727 mmHg 35%
18:00 +39°C° 0 mm 7 mps 728 mmHg 42%
19:00 +36°C° 0 mm 7 mps 729 mmHg 48%
20:00 +34°C° 0 mm 8 mps 729 mmHg 54%
21:00 +34°C° 0.1 mm 6 mps 730 mmHg 57%
22:00 +33°C° 0.1 mm 3 mps 731 mmHg 60%
23:00 +31°C° 0.1 mm 1 mps 732 mmHg 63%

Tomorrow, 16 June, Wednesday

Time Temperature Precipitation Wind Pressure Humidity
00:00 +30°C° 0.5 mm 2 mps 732 mmHg 64%
01:00 +30°C° 0.5 mm 3 mps 731 mmHg 66%
02:00 +30°C° 0.5 mm 4 mps 731 mmHg 67%
03:00 +29°C° 0 mm 4 mps 731 mmHg 69%
04:00 +29°C° 0 mm 3 mps 731 mmHg 71%
05:00 +29°C° 0 mm 3 mps 731 mmHg 74%
06:00 +30°C° 0 mm 3 mps 732 mmHg 69%
07:00 +32°C° 0 mm 4 mps 732 mmHg 65%
08:00 +33°C° 0 mm 4 mps 732 mmHg 61%
09:00 +35°C° 0 mm 4 mps 733 mmHg 55%
10:00 +36°C° 0 mm 3 mps 733 mmHg 49%
11:00 +38°C° 0 mm 2 mps 733 mmHg 43%
12:00 +39°C° 0 mm 2 mps 732 mmHg 40%
13:00 +40°C° 0 mm 1 mps 731 mmHg 36%
14:00 +41°C° 0 mm 1 mps 731 mmHg 33%
15:00 +41°C° 0 mm 2 mps 730 mmHg 33%
16:00 +42°C° 0 mm 3 mps 730 mmHg 34%
17:00 +41°C° 0 mm 4 mps 730 mmHg 34%
18:00 +38°C° 0.4 mm 4 mps 730 mmHg 41%
19:00 +36°C° 0.4 mm 4 mps 731 mmHg 48%
20:00 +34°C° 0.4 mm 4 mps 732 mmHg 55%
21:00 +33°C° 0.8 mm 5 mps 732 mmHg 60%
22:00 +32°C° 0.8 mm 5 mps 732 mmHg 65%
23:00 +30°C° 0.8 mm 6 mps 733 mmHg 70%

Day after tomorrow, 17 June, Thursday

Time Temperature Precipitation Wind Pressure Humidity
00:00 +30°C° 0 mm 4 mps 733 mmHg 68%
01:00 +30°C° 0 mm 3 mps 733 mmHg 67%
02:00 +30°C° 0 mm 1 mps 733 mmHg 65%
03:00 +30°C° 0 mm 1 mps 733 mmHg 67%
04:00 +30°C° 0 mm 2 mps 733 mmHg 69%
05:00 +30°C° 0 mm 2 mps 733 mmHg 72%
06:00 +31°C° 0 mm 2 mps 733 mmHg 66%
07:00 +32°C° 0 mm 2 mps 733 mmHg 61%
08:00 +33°C° 0 mm 1 mps 734 mmHg 56%
09:00 +35°C° 0 mm 1 mps 734 mmHg 50%
10:00 +36°C° 0 mm 1 mps 734 mmHg 45%
11:00 +39°C° 0 mm 1 mps 734 mmHg 39%
12:00 +40°C° 0 mm 1 mps 733 mmHg 36%
13:00 +41°C° 0 mm 1 mps 732 mmHg 32%
14:00 +42°C° 0 mm 2 mps 732 mmHg 29%
15:00 +42°C° 0 mm 2 mps 731 mmHg 28%
16:00 +42°C° 0 mm 2 mps 731 mmHg 27%
17:00 +42°C° 0 mm 2 mps 731 mmHg 27%
18:00 +40°C° 0 mm 3 mps 731 mmHg 32%
19:00 +40°C° 0 mm 4 mps 731 mmHg 37%
20:00 +39°C° 0 mm 5 mps 732 mmHg 42%
21:00 +37°C° 0 mm 4 mps 732 mmHg 45%
22:00 +36°C° 0 mm 4 mps 732 mmHg 48%
23:00 +36°C° 0 mm 3 mps 733 mmHg 50%

18 June, Friday

Time Temperature Precipitation Wind Pressure Humidity
00:00 +35°C° 0 mm 3 mps 732 mmHg 52%
01:00 +35°C° 0 mm 2 mps 732 mmHg 54%
02:00 +35°C° 0 mm 2 mps 732 mmHg 56%
03:00 +34°C° 0 mm 2 mps 732 mmHg 57%
04:00 +34°C° 0 mm 2 mps 732 mmHg 58%
05:00 +34°C° 0 mm 2 mps 732 mmHg 59%
06:00 +35°C° 0 mm 2 mps 732 mmHg 54%
07:00 +36°C° 0 mm 2 mps 733 mmHg 49%
08:00 +37°C° 0 mm 3 mps 733 mmHg 45%
09:00 +39°C° 0 mm 2 mps 733 mmHg 40%
10:00 +40°C° 0 mm 2 mps 733 mmHg 34%
11:00 +42°C° 0 mm 1 mps 733 mmHg 29%
12:00 +42°C° 0 mm 1 mps 732 mmHg 28%
13:00 +43°C° 0 mm 1 mps 732 mmHg 26%
14:00 +43°C° 0 mm 2 mps 731 mmHg 25%
15:00 +43°C° 0 mm 4 mps 731 mmHg 30%
16:00 +41°C° 0 mm 6 mps 731 mmHg 35%
17:00 +39°C° 0 mm 8 mps 731 mmHg 41%
18:00 +38°C° 0.1 mm 7 mps 732 mmHg 44%
19:00 +36°C° 0.1 mm 7 mps 733 mmHg 48%
20:00 +36°C° 0.1 mm 6 mps 733 mmHg 52%
21:00 +35°C° 0.2 mm 6 mps 734 mmHg 54%
22:00 +34°C° 0.2 mm 5 mps 734 mmHg 56%
23:00 +33°C° 0.2 mm 4 mps 734 mmHg 58%

19 June, Saturday

Time Temperature Precipitation Wind Pressure Humidity
00:00 +33°C° 0 mm 4 mps 734 mmHg 59%
01:00 +33°C° 0 mm 4 mps 734 mmHg 61%
02:00 +33°C° 0 mm 4 mps 734 mmHg 63%
03:00 +32°C° 0 mm 4 mps 734 mmHg 65%
04:00 +32°C° 0 mm 4 mps 734 mmHg 66%
05:00 +30°C° 0 mm 3 mps 734 mmHg 68%
06:00 +31°C° 0 mm 3 mps 734 mmHg 65%
07:00 +33°C° 0 mm 3 mps 735 mmHg 61%
08:00 +34°C° 0 mm 3 mps 735 mmHg 58%
09:00 +36°C° 0 mm 3 mps 735 mmHg 52%
10:00 +37°C° 0 mm 2 mps 735 mmHg 47%
11:00 +39°C° 0 mm 2 mps 734 mmHg 42%
12:00 +40°C° 0 mm 1 mps 734 mmHg 37%
13:00 +41°C° 0 mm 1 mps 733 mmHg 33%
14:00 +42°C° 0 mm 1 mps 732 mmHg 28%
15:00 +42°C° 0 mm 1 mps 732 mmHg 27%
16:00 +43°C° 0 mm 1 mps 732 mmHg 26%
17:00 +43°C° 0 mm 2 mps 731 mmHg 25%
18:00 +42°C° 0 mm 4 mps 732 mmHg 33%
19:00 +40°C° 0 mm 6 mps 732 mmHg 40%
20:00 +38°C° 0 mm 8 mps 733 mmHg 47%
21:00 +36°C° 0.3 mm 7 mps 733 mmHg 52%
22:00 +34°C° 0.3 mm 7 mps 734 mmHg 57%
23:00 +33°C° 0.3 mm 7 mps 734 mmHg 62%

20 June, Sunday

Time Temperature Precipitation Wind Pressure Humidity
00:00 +33°C° 0.5 mm 6 mps 734 mmHg 63%
01:00 +32°C° 0.5 mm 6 mps 734 mmHg 65%
02:00 +32°C° 0.5 mm 5 mps 734 mmHg 66%
03:00 +30°C° 0.2 mm 5 mps 734 mmHg 68%
04:00 +30°C° 0.2 mm 5 mps 734 mmHg 70%
05:00 +29°C° 0.2 mm 4 mps 734 mmHg 71%
06:00 +30°C° 0.2 mm 4 mps 735 mmHg 68%
07:00 +32°C° 0.2 mm 4 mps 735 mmHg 64%
08:00 +33°C° 0.2 mm 4 mps 735 mmHg 60%
09:00 +35°C° 0 mm 4 mps 735 mmHg 55%
10:00 +36°C° 0 mm 3 mps 735 mmHg 49%
11:00 +38°C° 0 mm 2 mps 735 mmHg 44%
12:00 +39°C° 0 mm 2 mps 734 mmHg 40%
13:00 +40°C° 0 mm 2 mps 733 mmHg 36%
14:00 +42°C° 0 mm 1 mps 732 mmHg 31%
15:00 +42°C° 0 mm 2 mps 732 mmHg 31%
16:00 +42°C° 0 mm 2 mps 732 mmHg 30%
17:00 +43°C° 0 mm 3 mps 731 mmHg 29%
18:00 +42°C° 0 mm 3 mps 732 mmHg 32%
19:00 +40°C° 0 mm 3 mps 732 mmHg 36%
20:00 +39°C° 0 mm 3 mps 733 mmHg 39%
21:00 +38°C° 0 mm 3 mps 733 mmHg 43%
22:00 +37°C° 0 mm 3 mps 733 mmHg 46%
23:00 +36°C° 0 mm 3 mps 733 mmHg 49%
Show more

We Need Your Consent

Meteoprog and our Service Providers may store and access personal data such as cookies, device identifiers or other similar technologies on your device and process such data to personalise content and ads, as well as provide social media features and to analyse the traffic.

  • Store and/or access information on your device

    Cookies, device identifiers or other information can be stored or accessed on your device for the purposes indicated above.

  • Personalised ads and content, ad and content measurement, audience insights, and products development

    Ads and content can be personalised based on a profile. More data can be added to better personalise ads and content. Ad and content performance can be measured. Insights about the audience who saw the ads and content can be derived. Such data can be used to develop or improve user’s experience, systems and software.

By clicking ‘I Agree’ you will allow the use of indicated cookies, device identifiers, web beacons or other similar technologies. Your settings can be changed in the browser on your device.

For certain purposes, legitimate interests may be relied on, rather than consent. You can read more about this in our Privacy and Cookie Policy.